2023/02/11 00:00:00,114.6, 1.1
2023/02/11 00:10:00,114.6, 0.9
2023/02/11 00:20:00,114.6, 0.8
2023/02/11 00:30:00,114.7, 0.9
2023/02/11 00:40:00,114.7, 0.9
2023/02/11 00:50:00,114.6, 0.9
2023/02/11 01:00:00,114.6, 1.4
2023/02/11 01:10:00,114.6, 1.4
2023/02/11 01:20:00,114.5, 1.0
2023/02/11 01:30:00,114.3, 0.6
2023/02/11 01:40:00,114.4, 1.0
2023/02/11 01:50:00,114.2, 1.3
2023/02/11 02:00:00,114.1, 1.1
2023/02/11 02:10:00,114.0, 1.1
2023/02/11 02:20:00,113.7, 1.2
2023/02/11 02:30:00,113.7, 1.3
2023/02/11 02:40:00,113.7, 1.3
2023/02/11 02:50:00,113.7, 1.6
2023/02/11 03:00:00,113.6, 1.2
2023/02/11 03:10:00,113.4, 0.9
2023/02/11 03:20:00,113.0, 1.0
2023/02/11 03:30:00,112.8, 1.0
2023/02/11 03:40:00,112.9, 0.9
2023/02/11 03:50:00,112.9, 1.3
2023/02/11 04:00:00,112.9, 1.0
2023/02/11 04:10:00,112.9, 0.9
2023/02/11 04:20:00,112.9, 1.1
2023/02/11 04:30:00,112.9, 1.0
2023/02/11 04:40:00,113.0, 0.7
2023/02/11 04:50:00,113.1, 0.7
2023/02/11 05:00:00,113.0, 0.6
2023/02/11 05:10:00,112.8, 1.2
2023/02/11 05:20:00,112.7, 1.1
2023/02/11 05:30:00,112.7, 0.9
2023/02/11 05:40:00,112.8, 0.8
2023/02/11 05:50:00,112.8, 1.1
2023/02/11 06:00:00,112.9, 1.1
2023/02/11 06:10:00,112.9, 1.1
2023/02/11 06:20:00,112.7, 1.8
2023/02/11 06:30:00,112.6, 0.7
2023/02/11 06:40:00,112.5, 0.7
2023/02/11 06:50:00,112.5, 0.7
2023/02/11 07:00:00,112.7, 0.5
2023/02/11 07:10:00,112.7, 0.7
2023/02/11 07:20:00,112.7, 0.5
2023/02/11 07:30:00,112.7, 1.0
2023/02/11 07:40:00,112.6, 0.9
2023/02/11 07:50:00,112.5, 1.1
2023/02/11 08:00:00,112.4, 1.2
2023/02/11 08:10:00,112.4, 1.1
2023/02/11 08:20:00,112.2, 0.9
2023/02/11 08:30:00,112.2, 1.4
2023/02/11 08:40:00,112.1, 1.5
2023/02/11 08:50:00,112.1, 2.2
2023/02/11 09:00:00,112.0, 2.6
2023/02/11 09:10:00,112.0, 3.0
2023/02/11 09:20:00,112.0, 3.5
2023/02/11 09:30:00,111.8, 4.0
2023/02/11 09:40:00,111.7, 4.7
2023/02/11 09:50:00,111.4, 5.0
2023/02/11 10:00:00,110.8, 4.9
2023/02/11 10:10:00,---, 5.5
2023/02/11 10:20:00,110.3, 5.7
2023/02/11 10:30:00,110.5, 5.9
2023/02/11 10:40:00,110.3, 5.7
2023/02/11 10:50:00,110.3, 5.6
2023/02/11 11:00:00,110.4, 5.0
2023/02/11 11:10:00,110.4, 4.6
2023/02/11 11:20:00,110.5, 4.5
2023/02/11 11:30:00,110.2, 4.8
2023/02/11 11:40:00,110.0, 4.3
2023/02/11 11:50:00,109.6, 5.0
2023/02/11 12:00:00,109.5, 5.1
2023/02/11 12:10:00,109.7, 5.5
2023/02/11 12:20:00,109.6, 5.3
2023/02/11 12:30:00,109.4, 5.6
2023/02/11 12:40:00,109.4, 5.5
2023/02/11 12:50:00,109.3, 5.3
2023/02/11 13:00:00,109.1, 5.7
2023/02/11 13:10:00,108.8, 5.5
2023/02/11 13:20:00,108.4, 5.3
2023/02/11 13:30:00,108.0, 5.0
2023/02/11 13:40:00,108.0, 5.0
2023/02/11 13:50:00,108.1, 5.0
2023/02/11 14:00:00,108.3, 5.0
2023/02/11 14:10:00,108.6, 4.3
2023/02/11 14:20:00,108.4, 4.1
2023/02/11 14:30:00,108.2, 3.9
2023/02/11 14:40:00,108.2, 4.0
2023/02/11 14:50:00,108.1, 3.7
2023/02/11 15:00:00,108.1, 3.9
2023/02/11 15:10:00,108.2, 3.4
2023/02/11 15:20:00,108.3, 3.4
2023/02/11 15:30:00,107.9, 3.4
2023/02/11 15:40:00,107.7, 3.2
2023/02/11 15:50:00,107.6, 3.2
2023/02/11 16:00:00,107.5, 3.1
2023/02/11 16:10:00,107.6, 2.4
2023/02/11 16:20:00,107.6, 2.2
2023/02/11 16:30:00,107.6, 2.2
2023/02/11 16:40:00,107.4, 1.9
2023/02/11 16:50:00,107.1, 1.9
2023/02/11 17:00:00,107.0, 1.8
2023/02/11 17:10:00,107.1, 1.9
2023/02/11 17:20:00,107.2, 1.2
2023/02/11 17:30:00,107.2, 1.3
2023/02/11 17:40:00,107.2, 1.0
2023/02/11 17:50:00,107.3, 1.1
2023/02/11 18:00:00,107.5, 1.2
2023/02/11 18:10:00,107.6, 1.1
2023/02/11 18:20:00,107.9, 0.8
2023/02/11 18:30:00,108.2, 0.9
2023/02/11 18:40:00,108.1, 0.5
2023/02/11 18:50:00,107.8, 1.2
2023/02/11 19:00:00,107.4, 1.1
2023/02/11 19:10:00,107.4, 0.8
2023/02/11 19:20:00,107.2, 1.1
2023/02/11 19:30:00,107.1, 0.7
2023/02/11 19:40:00,107.1, 0.9
2023/02/11 19:50:00,107.1, 0.7
2023/02/11 20:00:00,107.2, 0.9
2023/02/11 20:10:00,107.2, 0.7
2023/02/11 20:20:00,107.1, 0.7
2023/02/11 20:30:00,107.2, 1.1
2023/02/11 20:40:00,107.2, 0.7
2023/02/11 20:50:00,107.2, 0.9
2023/02/11 21:00:00,107.2, 0.9
2023/02/11 21:10:00,107.2, 0.4
2023/02/11 21:20:00,107.2, 0.5
2023/02/11 21:30:00,107.2, 0.8
2023/02/11 21:40:00,107.0, 0.6
2023/02/11 21:50:00,106.9, 0.4
2023/02/11 22:00:00,106.7, 0.2
2023/02/11 22:10:00,106.5, 0.3
2023/02/11 22:20:00,106.4, 0.5
2023/02/11 22:30:00,106.4, 0.9
2023/02/11 22:40:00,106.4, 0.5
2023/02/11 22:50:00,106.4, 0.7
2023/02/11 23:00:00,106.5, 0.4
2023/02/11 23:10:00,106.5, 0.7
2023/02/11 23:20:00,106.5, 0.5
2023/02/11 23:30:00,106.4, 0.8
2023/02/11 23:40:00,106.4, 0.6
2023/02/11 23:50:00,106.3, 0.5
